Hilo, HI

4:21 PM HST on March 24, 2017 (GMT -1000)
Hilo International

Weather History for PHTO - March, 2014

Change the Weather History Date:

Wednesday, March 5, 2014

  Actual Average Record
Temperature  
Mean Temperature 72 °F 72 °F  
Max Temperature 79 °F 79 °F 89 °F (1978)
Min Temperature 64 °F 64 °F 58 °F (1979)
Degree Days  
Heating Degree Days 0 0  
Month to date heating degree days 0 0  
Since 1 July heating degree days 0 0  
Cooling Degree Days 7 7  
Month to date cooling degree days 32 32  
Year to date cooling degree days 490 402  
Growing Degree Days 20 (Base 50)    
Moisture  
Dew Point 63 °F    
Average Humidity 80    
Maximum Humidity 97    
Minimum Humidity 62    
Precipitation  
Precipitation 0.09 in 0.41 in 3.84 in (1969)
Month to date precipitation 0.46 2.01  
Year to date precipitation 8.69 20.83  
Snow  
Snow 0.00 in - - ()
Month to date snowfall 0.0  
Since 1 July snowfall 0.0  
Snow Depth 0.00 in    
Sea Level Pressure  
Sea Level Pressure 30.01 in    
Wind  
Wind Speed 6 mph (WSW)    
Max Wind Speed 12 mph    
Max Gust Speed 14 mph    
Visibility 10 miles    
Events Rain    
T = Trace of Precipitation, MM = Missing Value Source: NWS Daily Summary

Daily Weather History Graph

Daily Weather History Graph

Search for Another Location

Airport or City:

Trip Planner

Search our weather history database for the weather conditions in past years. The results will help you decide how hot, cold, wet, or windy it might be!

Date:

Astronomy

Mar. 05, 2014 Rise Set
Actual Time 6:36 AM HST 6:26 PM HST
Civil Twilight 6:14 AM HST 6:48 PM HST
Nautical Twilight 5:49 AM HST 7:14 PM HST
Astronomical Twilight 5:23 AM HST 7:39 PM HST
Moon 9:50 AM HST (3/5) 11:02 PM HST (3/5)
Length of Visible Light 12h 34m
Length of Day
11h 50m
Waxing Crescent, 25% of the Moon is Illuminated
Mar 5
Waxing Crescent
Mar 8
First Quarter
Mar 16
Full
Mar 23
Last Quarter
Mar 30
New

Hourly Weather History & Observations

Time (HST) Temp. Dew Point Humidity Pressure Visibility Wind Dir Wind Speed Gust Speed Precip Events Conditions
12:53 AM 66.0 °F 63.0 °F 90% 30.02 in 10.0 mi West 4.6 mph - N/A   Mostly Cloudy
1:53 AM 66.0 °F 63.0 °F 90% 30.00 in 10.0 mi SW 4.6 mph - N/A   Mostly Cloudy
2:53 AM 66.0 °F 62.1 °F 87% 29.98 in 10.0 mi WSW 5.8 mph - N/A   Mostly Cloudy
3:53 AM 66.0 °F 57.9 °F 75% 29.97 in 10.0 mi SW 9.2 mph - N/A   Overcast
4:53 AM 66.0 °F 55.9 °F 70% 29.97 in 10.0 mi SW 8.1 mph - N/A   Mostly Cloudy
5:53 AM 64.9 °F 55.9 °F 73% 29.99 in 10.0 mi SW 5.8 mph - N/A   Mostly Cloudy
6:53 AM 64.9 °F 57.0 °F 75% 30.01 in 10.0 mi SW 6.9 mph - N/A   Mostly Cloudy
7:53 AM 68.0 °F 57.9 °F 70% 30.04 in 10.0 mi SW 5.8 mph - N/A   Mostly Cloudy
8:53 AM 73.9 °F 62.1 °F 66% 30.05 in 10.0 mi Variable 3.5 mph - N/A   Partly Cloudy
9:53 AM 75.9 °F 64.0 °F 67% 30.07 in 10.0 mi NNE 9.2 mph - N/A   Mostly Cloudy
10:53 AM 78.1 °F 64.9 °F 64% 30.06 in 10.0 mi North 10.4 mph - N/A   Scattered Clouds
11:53 AM 78.1 °F 64.0 °F 62% 30.03 in 10.0 mi North 10.4 mph - N/A   Scattered Clouds
12:53 PM 78.1 °F 64.9 °F 64% 30.00 in 10.0 mi North 9.2 mph - N/A   Scattered Clouds
1:53 PM 75.9 °F 64.0 °F 67% 29.99 in 10.0 mi NE 8.1 mph - N/A   Overcast
2:53 PM 75.0 °F 63.0 °F 66% 29.97 in 10.0 mi East 8.1 mph - N/A   Overcast
3:53 PM 75.0 °F 64.0 °F 69% 29.96 in 10.0 mi ESE 6.9 mph - N/A   Overcast
4:53 PM 73.0 °F 64.9 °F 76% 29.98 in 10.0 mi West 4.6 mph - N/A   Overcast
5:53 PM 72.0 °F 66.0 °F 81% 29.98 in 10.0 mi WSW 5.8 mph - N/A   Overcast
6:53 PM 71.1 °F 64.9 °F 81% 30.00 in 10.0 mi WSW 4.6 mph - N/A   Overcast
7:29 PM 71.1 °F 64.9 °F 81% 30.02 in 10.0 mi WSW 3.5 mph - N/A   Overcast
7:53 PM 69.1 °F 66.9 °F 93% 30.03 in 3.0 mi SE 9.2 mph - 0.02 in Rain Heavy Rain
8:28 PM 69.1 °F 68.0 °F 96% 30.04 in 10.0 mi Calm Calm - 0.06 in   Overcast
8:53 PM 69.1 °F 68.0 °F 96% 30.04 in 10.0 mi Calm Calm - 0.07 in   Overcast
9:53 PM 68.0 °F 66.9 °F 96% 30.04 in 10.0 mi WSW 3.5 mph - N/A   Scattered Clouds
10:53 PM 66.0 °F 64.9 °F 96% 30.03 in 10.0 mi SSW 4.6 mph - N/A   Clear
11:53 PM 64.9 °F 64.0 °F 97% 30.01 in 10.0 mi South 3.5 mph - N/A   Clear